パンスターズ彗星

C/2017 X1 ( PanSTARRS )

English version
Home page
Updated on May 20, 2019

---------------------------------------------------------------------

・ プロフィール

発見日 2017年12月12日
発見光度 20.2等
発見者 Pan-STARRS 1 telescope (Haleakala)

・ 軌道要素

Epoch 2018 June 11.0 TT = JDT 2458280.5
T 2018 June 14.52990 TT                                 MPCW
q   4.6625567            (2000.0)            P               Q
n   0.00562387     Peri.  283.11710     -0.86074353     -0.13156266
a  31.3169178      Node   251.12716     +0.25124130     -0.94996047
e   0.8511170      Incl.   31.31095     -0.44271704     -0.28331322
P 175
From 79 observations 2017 Dec. 12-2019 Apr. 2, mean residual 0".3.

・ 光度変化

        m1 = 9.0 + 5 logΔ + 10.0 log r

---------------------------------------------------------------------

軌道要素はM.P.E.C. 2019-J142に掲載されたものです。
光度グラフはComet for Windowsで作成したものです。

---------------------------------------------------------------------

Copyright(C) Seiichi Yoshida (comet@aerith.net). All rights reserved.